GEFSNE_prec_meanprecacc_270.txt.gz
Total_Precipitation_Accumulation
2.15 2.28 2.44 2.56 2.49 2.32 2.28 2.27 2.23 2.03 1.81 1.68 1.50 1.32 1.40 1.52 1.77 1.55 1.46 1.43 1.18 1.03 0.97 1.05 1.21 1.28 1.41 1.58 1.83 2.19 2.51 2.68 2.76 2.55 2.26 2.11 2.07 1.99
1.94 2.08 2.13 2.19 2.38 2.36 2.21 2.20 2.12 2.01 1.88 1.67 1.56 1.41 1.56 1.50 1.68 1.49 1.51 1.57 1.27 1.13 1.02 0.97 0.99 0.95 0.92 0.99 1.08 1.25 1.62 1.72 1.88 1.98 1.96 1.81 1.79 1.77
1.55 1.67 1.82 2.07 2.38 2.42 2.37 2.25 2.16 2.04 1.82 1.65 1.46 1.37 1.66 1.76 1.69 1.56 1.55 1.51 1.28 1.19 1.06 0.95 0.90 0.85 0.80 0.73 0.76 0.86 1.03 1.11 1.18 1.27 1.42 1.51 1.63 1.71
1.34 1.46 1.62 1.91 2.25 2.46 2.56 2.45 2.29 2.16 2.03 1.90 1.58 1.33 1.44 1.77 1.89 1.83 1.64 1.49 1.33 1.26 1.09 0.95 0.88 0.81 0.75 0.73 0.73 0.74 0.74 0.78 0.92 0.97 1.02 1.17 1.42 1.62
1.30 1.36 1.41 1.59 1.79 1.99 2.18 2.33 2.30 2.27 2.26 2.03 1.74 1.48 1.41 1.54 1.79 1.79 1.72 1.70 1.46 1.39 1.36 1.21 1.06 0.96 0.85 0.77 0.77 0.74 0.69 0.68 0.71 0.81 0.89 0.96 1.11 1.31
1.07 1.17 1.25 1.30 1.46 1.60 1.71 1.93 2.15 2.38 2.44 2.28 2.03 1.71 1.58 1.46 1.56 1.72 1.79 1.74 1.65 1.46 1.42 1.30 1.28 1.21 1.09 0.94 0.81 0.74 0.74 0.76 0.76 0.77 0.83 0.90 0.93 1.03
0.98 0.98 1.05 1.07 1.14 1.32 1.36 1.59 1.93 2.20 2.30 2.36 2.23 1.92 1.65 1.47 1.26 1.37 1.64 1.86 1.86 1.78 1.76 1.51 1.38 1.23 1.15 1.12 1.04 0.90 0.80 0.77 0.77 0.79 0.85 0.91 1.00 1.05
0.95 0.95 0.97 0.92 0.89 0.96 1.08 1.21 1.52 1.73 1.88 1.97 1.98 1.82 1.61 1.48 1.42 1.38 1.46 1.61 1.67 1.55 1.60 1.67 1.59 1.43 1.33 1.21 1.22 1.25 1.15 1.04 0.96 0.94 0.95 0.96 1.04 1.13
0.97 1.01 0.98 0.91 0.94 0.95 0.97 0.97 1.04 1.22 1.44 1.66 1.69 1.58 1.64 1.56 1.49 1.38 1.38 1.39 1.38 1.48 1.57 1.64 1.62 1.50 1.42 1.41 1.43 1.33 1.26 1.18 1.10 1.06 1.06 1.05 1.03 1.06
0.93 0.89 0.97 0.99 1.01 1.06 1.00 1.05 0.99 0.97 1.07 1.12 1.26 1.47 1.63 1.80 1.78 1.66 1.65 1.58 1.49 1.59 1.62 1.58 1.48 1.39 1.30 1.28 1.34 1.21 1.12 1.08 1.07 1.06 1.03 1.02 1.00 1.01
0.92 0.93 1.02 1.06 1.19 1.23 1.13 1.17 1.13 1.09 1.07 1.18 1.28 1.39 1.49 1.61 1.76 1.80 1.75 1.71 1.56 1.48 1.50 1.44 1.33 1.35 1.33 1.21 1.14 1.14 1.04 0.99 0.96 0.95 0.96 0.96 0.99 1.08
1.07 1.07 1.27 1.23 1.22 1.16 1.11 1.25 1.21 1.07 1.00 1.04 1.10 1.19 1.23 1.34 1.49 1.54 1.67 1.74 1.64 1.48 1.28 1.25 1.25 1.29 1.34 1.22 1.09 1.02 0.99 1.01 0.97 0.93 0.92 0.96 1.06 1.08
1.18 1.15 1.10 1.23 1.17 1.09 1.07 1.11 1.25 1.13 1.05 1.08 1.08 1.08 1.11 1.15 1.20 1.28 1.41 1.56 1.62 1.46 1.26 1.28 1.27 1.26 1.19 1.04 1.01 0.97 0.94 0.94 0.94 0.95 0.99 1.04 1.10 1.09
1.19 1.09 0.99 1.21 1.15 1.05 0.96 0.98 1.13 1.21 1.20 1.23 1.22 1.14 1.05 1.03 1.03 1.09 1.18 1.30 1.41 1.41 1.36 1.36 1.33 1.27 1.24 1.10 0.97 0.94 0.96 0.97 0.98 0.94 0.92 1.09 1.18 1.25
1.06 1.07 1.07 1.10 1.00 0.95 1.03 1.07 1.09 1.12 1.21 1.26 1.16 1.01 0.95 0.95 1.02 1.13 1.23 1.32 1.39 1.36 1.30 1.31 1.35 1.39 1.40 1.26 1.11 1.01 1.00 0.98 0.96 0.94 0.91 0.93 1.01 1.17
0.87 0.90 0.94 0.89 0.87 0.90 0.96 1.05 1.10 1.16 1.19 1.13 1.03 0.90 0.91 0.97 1.01 1.06 1.20 1.33 1.45 1.41 1.37 1.43 1.47 1.51 1.53 1.36 1.25 1.15 1.11 1.07 1.02 1.04 1.03 0.98 0.95 1.00
1.07 0.92 0.90 0.88 0.85 0.84 0.88 0.93 0.99 1.00 1.03 1.00 0.96 0.95 0.94 0.97 0.98 0.98 1.08 1.17 1.18 1.14 1.16 1.26 1.46 1.60 1.58 1.54 1.46 1.27 1.23 1.22 1.23 1.27 1.27 1.18 1.02 0.95
1.42 1.35 1.29 1.18 1.07 0.96 0.90 0.86 0.84 0.85 0.88 0.93 0.93 0.91 0.92 0.97 1.03 1.03 1.08 1.14 1.13 1.03 1.00 1.05 1.26 1.56 1.71 1.62 1.45 1.33 1.30 1.24 1.26 1.41 1.45 1.36 1.15 1.01
1.36 1.36 1.33 1.18 1.04 0.96 0.86 0.76 0.71 0.73 0.81 0.82 0.85 0.88 0.88 0.93 0.98 1.01 1.01 1.07 1.10 1.06 1.01 1.03 1.17 1.36 1.54 1.43 1.22 1.13 1.19 1.25 1.35 1.43 1.47 1.39 1.18 1.04
0.99 1.02 0.96 0.90 0.83 0.71 0.66 0.64 0.61 0.66 0.75 0.78 0.80 0.83 0.86 0.90 0.92 0.98 1.00 1.02 1.07 1.06 1.03 0.99 1.01 1.12 1.28 1.25 1.13 0.99 1.01 1.14 1.25 1.27 1.26 1.28 1.22 1.27
0.67 0.63 0.58 0.58 0.58 0.55 0.54 0.54 0.55 0.60 0.67 0.74 0.77 0.77 0.80 0.85 0.90 0.94 1.01 1.11 1.10 1.08 1.07 0.97 0.93 1.09 1.18 1.29 1.25 0.96 0.87 1.05 1.18 1.19 1.22 1.33 1.33 1.24
0.45 0.44 0.44 0.44 0.47 0.47 0.50 0.52 0.53 0.57 0.63 0.70 0.74 0.79 0.79 0.80 0.84 0.91 0.96 1.01 1.01 0.99 0.99 0.99 1.02 1.12 1.19 1.29 1.23 1.05 0.94 0.95 1.15 1.36 1.30 1.29 1.26 1.17
0.45 0.45 0.42 0.44 0.47 0.47 0.50 0.54 0.58 0.61 0.64 0.73 0.76 0.78 0.83 0.84 0.84 0.87 0.91 0.91 0.95 0.95 0.96 1.01 1.05 1.14 1.19 1.23 1.27 1.23 1.18 1.09 1.10 1.22 1.25 1.33 1.22 0.99

GEFSNE_prec_meanprecacc_276.txt.gz
Total_Precipitation_Accumulation
2.16 2.29 2.45 2.57 2.51 2.33 2.30 2.30 2.26 2.06 1.84 1.70 1.52 1.34 1.42 1.53 1.78 1.56 1.47 1.44 1.19 1.04 0.98 1.06 1.25 1.37 1.52 1.69 1.92 2.25 2.56 2.73 2.82 2.61 2.34 2.23 2.18 2.09
1.95 2.09 2.14 2.21 2.39 2.38 2.23 2.24 2.16 2.04 1.90 1.69 1.58 1.43 1.58 1.51 1.69 1.50 1.52 1.59 1.28 1.14 1.02 0.98 1.02 1.02 1.00 1.08 1.16 1.31 1.66 1.76 1.94 2.05 2.04 1.89 1.86 1.84
1.56 1.70 1.85 2.09 2.39 2.44 2.39 2.28 2.19 2.07 1.85 1.67 1.49 1.39 1.67 1.77 1.70 1.59 1.57 1.53 1.29 1.20 1.07 0.96 0.94 0.91 0.88 0.83 0.86 0.96 1.10 1.17 1.23 1.33 1.51 1.61 1.71 1.78
1.35 1.48 1.65 1.93 2.27 2.48 2.57 2.45 2.31 2.18 2.05 1.92 1.61 1.36 1.46 1.78 1.91 1.85 1.68 1.52 1.36 1.28 1.11 0.99 0.94 0.86 0.82 0.80 0.78 0.79 0.78 0.82 0.95 1.00 1.07 1.24 1.50 1.70
1.31 1.37 1.42 1.62 1.81 2.01 2.20 2.34 2.31 2.28 2.27 2.04 1.76 1.50 1.42 1.55 1.80 1.81 1.76 1.76 1.52 1.44 1.40 1.25 1.10 0.99 0.89 0.80 0.79 0.76 0.71 0.70 0.73 0.84 0.92 1.00 1.15 1.36
1.08 1.18 1.26 1.31 1.48 1.63 1.73 1.95 2.16 2.39 2.45 2.29 2.04 1.73 1.60 1.48 1.58 1.75 1.82 1.78 1.70 1.52 1.48 1.35 1.33 1.24 1.12 0.96 0.82 0.75 0.75 0.78 0.77 0.78 0.85 0.92 0.95 1.05
0.99 0.99 1.06 1.09 1.16 1.34 1.38 1.61 1.95 2.22 2.31 2.37 2.24 1.93 1.68 1.50 1.29 1.41 1.68 1.90 1.89 1.82 1.81 1.56 1.41 1.26 1.17 1.13 1.05 0.91 0.81 0.78 0.78 0.80 0.86 0.92 1.01 1.06
0.96 0.96 0.98 0.93 0.91 0.98 1.11 1.23 1.53 1.75 1.90 1.98 1.99 1.83 1.62 1.50 1.45 1.42 1.50 1.64 1.69 1.59 1.63 1.70 1.61 1.45 1.35 1.22 1.23 1.26 1.16 1.05 0.97 0.95 0.96 0.97 1.05 1.14
0.98 1.02 0.99 0.92 0.96 0.97 0.99 0.99 1.05 1.23 1.46 1.68 1.70 1.59 1.66 1.57 1.51 1.40 1.42 1.43 1.41 1.52 1.60 1.67 1.64 1.52 1.44 1.42 1.45 1.34 1.28 1.19 1.11 1.07 1.06 1.05 1.04 1.07
0.94 0.90 0.98 1.00 1.02 1.08 1.01 1.06 1.00 0.98 1.08 1.13 1.27 1.48 1.64 1.81 1.79 1.68 1.68 1.62 1.52 1.63 1.65 1.61 1.51 1.42 1.32 1.29 1.35 1.22 1.13 1.09 1.08 1.06 1.04 1.03 1.01 1.01
0.93 0.94 1.03 1.07 1.21 1.24 1.14 1.19 1.14 1.11 1.08 1.19 1.29 1.40 1.49 1.62 1.77 1.81 1.77 1.74 1.59 1.52 1.53 1.47 1.36 1.37 1.35 1.23 1.15 1.15 1.05 1.00 0.97 0.96 0.97 0.97 1.00 1.09
1.08 1.08 1.29 1.24 1.23 1.17 1.11 1.26 1.22 1.08 1.01 1.05 1.11 1.20 1.24 1.35 1.49 1.54 1.68 1.75 1.65 1.50 1.30 1.28 1.28 1.33 1.37 1.24 1.11 1.03 1.00 1.02 0.98 0.93 0.93 0.96 1.06 1.08
1.20 1.16 1.12 1.26 1.19 1.10 1.08 1.12 1.25 1.14 1.06 1.09 1.09 1.10 1.11 1.16 1.21 1.29 1.42 1.56 1.63 1.47 1.27 1.29 1.29 1.28 1.22 1.07 1.04 1.00 0.97 0.96 0.96 0.96 1.00 1.05 1.11 1.10
1.22 1.10 0.99 1.22 1.17 1.07 0.98 0.99 1.14 1.21 1.20 1.24 1.23 1.15 1.07 1.04 1.04 1.10 1.19 1.30 1.41 1.42 1.37 1.37 1.35 1.29 1.26 1.12 0.99 0.96 0.98 1.00 1.00 0.96 0.94 1.12 1.20 1.27
1.09 1.10 1.09 1.11 1.02 0.97 1.06 1.08 1.10 1.13 1.22 1.28 1.17 1.02 0.96 0.96 1.04 1.15 1.25 1.33 1.40 1.36 1.31 1.32 1.37 1.42 1.43 1.30 1.14 1.04 1.04 1.00 0.98 0.96 0.93 0.95 1.02 1.19
0.91 0.95 0.96 0.91 0.89 0.93 0.99 1.08 1.12 1.17 1.20 1.14 1.03 0.91 0.92 0.98 1.03 1.08 1.22 1.36 1.48 1.44 1.39 1.44 1.49 1.53 1.55 1.39 1.28 1.18 1.14 1.10 1.04 1.06 1.04 0.99 0.97 1.01
1.12 0.97 0.93 0.90 0.88 0.87 0.91 0.96 1.01 1.01 1.03 1.00 0.96 0.95 0.94 0.97 0.99 0.99 1.10 1.18 1.20 1.17 1.19 1.29 1.47 1.61 1.60 1.56 1.49 1.30 1.26 1.25 1.25 1.29 1.28 1.19 1.03 0.96
1.46 1.39 1.33 1.21 1.09 0.99 0.94 0.90 0.87 0.87 0.89 0.93 0.94 0.92 0.93 0.98 1.04 1.05 1.08 1.15 1.14 1.04 1.01 1.07 1.29 1.58 1.73 1.64 1.46 1.34 1.31 1.26 1.27 1.42 1.46 1.38 1.16 1.01
1.39 1.39 1.36 1.20 1.06 0.99 0.89 0.80 0.75 0.76 0.83 0.84 0.86 0.89 0.90 0.94 1.00 1.02 1.02 1.08 1.11 1.07 1.02 1.05 1.18 1.38 1.56 1.44 1.24 1.14 1.20 1.26 1.36 1.45 1.49 1.40 1.18 1.05
1.02 1.04 0.98 0.93 0.86 0.73 0.68 0.67 0.65 0.69 0.79 0.80 0.82 0.84 0.86 0.91 0.93 0.98 1.01 1.03 1.09 1.08 1.04 1.00 1.02 1.13 1.30 1.27 1.16 1.01 1.03 1.16 1.26 1.28 1.27 1.29 1.23 1.27
0.69 0.65 0.60 0.59 0.60 0.57 0.55 0.55 0.58 0.63 0.69 0.77 0.79 0.78 0.81 0.86 0.91 0.95 1.03 1.13 1.13 1.10 1.10 1.00 0.96 1.11 1.21 1.32 1.27 0.98 0.89 1.07 1.19 1.20 1.23 1.35 1.35 1.25
0.47 0.47 0.46 0.46 0.48 0.48 0.52 0.54 0.55 0.59 0.65 0.71 0.76 0.81 0.81 0.81 0.85 0.93 0.99 1.04 1.04 1.02 1.02 1.02 1.05 1.14 1.21 1.31 1.25 1.06 0.95 0.97 1.16 1.37 1.31 1.30 1.28 1.19
0.47 0.47 0.45 0.46 0.48 0.48 0.52 0.56 0.60 0.64 0.66 0.74 0.78 0.81 0.85 0.87 0.88 0.91 0.95 0.96 0.99 0.99 0.99 1.04 1.08 1.16 1.21 1.25 1.28 1.24 1.19 1.11 1.12 1.25 1.27 1.34 1.23 1.00

GEFSNE_prec_meanprecacc_282.txt.gz
Total_Precipitation_Accumulation
2.17 2.30 2.47 2.59 2.52 2.35 2.33 2.32 2.29 2.10 1.88 1.73 1.55 1.35 1.43 1.54 1.78 1.56 1.47 1.45 1.20 1.04 0.98 1.06 1.25 1.38 1.55 1.74 2.01 2.37 2.66 2.82 2.89 2.65 2.36 2.27 2.27 2.22
1.97 2.11 2.16 2.23 2.41 2.41 2.28 2.28 2.21 2.08 1.94 1.72 1.60 1.45 1.58 1.51 1.69 1.51 1.53 1.60 1.29 1.15 1.02 0.98 1.03 1.03 1.03 1.12 1.22 1.39 1.75 1.85 2.00 2.08 2.06 1.93 1.91 1.94
1.58 1.71 1.87 2.12 2.42 2.47 2.43 2.33 2.25 2.12 1.88 1.69 1.51 1.41 1.68 1.78 1.71 1.59 1.58 1.53 1.30 1.21 1.07 0.97 0.95 0.92 0.89 0.85 0.91 1.03 1.18 1.24 1.28 1.36 1.54 1.66 1.77 1.87
1.37 1.49 1.67 1.96 2.30 2.51 2.60 2.49 2.36 2.23 2.08 1.94 1.63 1.38 1.47 1.79 1.91 1.85 1.68 1.53 1.37 1.29 1.12 1.01 0.95 0.88 0.83 0.82 0.82 0.85 0.86 0.89 1.00 1.03 1.10 1.29 1.57 1.79
1.32 1.38 1.44 1.64 1.83 2.03 2.23 2.37 2.34 2.32 2.29 2.06 1.78 1.51 1.43 1.56 1.80 1.81 1.76 1.77 1.53 1.45 1.42 1.27 1.12 1.00 0.90 0.82 0.82 0.81 0.78 0.76 0.78 0.87 0.93 1.02 1.20 1.44
1.09 1.18 1.27 1.33 1.50 1.64 1.75 1.97 2.18 2.41 2.46 2.31 2.05 1.74 1.61 1.50 1.59 1.76 1.83 1.79 1.71 1.54 1.50 1.37 1.34 1.26 1.14 0.98 0.85 0.79 0.80 0.82 0.80 0.80 0.86 0.93 0.97 1.08
1.00 1.00 1.07 1.11 1.18 1.35 1.39 1.63 1.95 2.23 2.32 2.38 2.25 1.94 1.68 1.51 1.30 1.42 1.68 1.90 1.90 1.83 1.83 1.59 1.44 1.29 1.20 1.16 1.09 0.95 0.85 0.81 0.80 0.82 0.88 0.94 1.02 1.08
0.97 0.97 1.00 0.96 0.93 1.00 1.12 1.24 1.54 1.76 1.91 1.99 2.00 1.84 1.64 1.51 1.47 1.43 1.51 1.65 1.71 1.61 1.65 1.73 1.66 1.50 1.39 1.26 1.28 1.30 1.20 1.08 0.99 0.96 0.97 0.98 1.06 1.15
1.00 1.04 1.01 0.94 0.97 0.99 1.00 1.00 1.06 1.24 1.47 1.69 1.71 1.61 1.67 1.59 1.53 1.42 1.43 1.44 1.44 1.55 1.63 1.71 1.68 1.57 1.49 1.47 1.49 1.37 1.30 1.22 1.13 1.09 1.08 1.07 1.06 1.08
0.96 0.93 1.00 1.02 1.05 1.11 1.05 1.08 1.02 1.00 1.09 1.14 1.28 1.50 1.65 1.82 1.81 1.71 1.71 1.64 1.55 1.66 1.68 1.64 1.55 1.46 1.37 1.34 1.40 1.26 1.16 1.12 1.10 1.09 1.07 1.06 1.03 1.03
0.95 0.96 1.04 1.08 1.23 1.27 1.18 1.22 1.17 1.14 1.11 1.21 1.30 1.42 1.52 1.64 1.80 1.83 1.79 1.76 1.62 1.55 1.56 1.50 1.40 1.41 1.39 1.27 1.20 1.19 1.08 1.03 0.99 0.98 0.99 0.99 1.02 1.11
1.10 1.10 1.30 1.25 1.25 1.18 1.13 1.28 1.25 1.12 1.04 1.08 1.13 1.21 1.26 1.37 1.51 1.56 1.70 1.78 1.68 1.53 1.34 1.32 1.31 1.35 1.39 1.27 1.14 1.07 1.03 1.05 1.01 0.96 0.95 0.98 1.08 1.10
1.21 1.17 1.13 1.27 1.21 1.12 1.09 1.13 1.27 1.17 1.09 1.12 1.12 1.11 1.13 1.17 1.23 1.31 1.44 1.59 1.65 1.49 1.30 1.32 1.31 1.30 1.24 1.09 1.06 1.03 0.99 0.99 0.99 0.99 1.03 1.07 1.13 1.11
1.23 1.11 1.01 1.23 1.18 1.09 0.99 1.01 1.16 1.24 1.23 1.29 1.28 1.18 1.09 1.05 1.05 1.11 1.20 1.32 1.43 1.44 1.40 1.39 1.37 1.31 1.28 1.14 1.01 0.97 1.00 1.01 1.02 0.98 0.96 1.15 1.22 1.29
1.11 1.12 1.11 1.13 1.04 0.99 1.07 1.10 1.13 1.15 1.24 1.30 1.20 1.06 0.99 0.97 1.04 1.15 1.26 1.34 1.41 1.37 1.32 1.34 1.38 1.44 1.44 1.31 1.16 1.06 1.05 1.02 0.99 0.97 0.94 0.97 1.04 1.21
0.93 0.98 0.99 0.95 0.92 0.94 1.00 1.10 1.14 1.19 1.22 1.15 1.04 0.92 0.93 1.00 1.04 1.08 1.23 1.37 1.50 1.46 1.40 1.46 1.50 1.54 1.57 1.40 1.29 1.20 1.16 1.11 1.06 1.08 1.06 1.01 0.98 1.03
1.16 1.02 0.96 0.92 0.89 0.88 0.92 0.98 1.04 1.05 1.06 1.02 0.97 0.96 0.95 0.98 1.00 1.00 1.11 1.20 1.22 1.19 1.22 1.32 1.50 1.64 1.62 1.57 1.50 1.32 1.28 1.27 1.27 1.30 1.30 1.21 1.05 0.98
1.52 1.45 1.37 1.23 1.11 0.99 0.94 0.90 0.88 0.91 0.94 0.97 0.96 0.93 0.93 0.99 1.05 1.05 1.09 1.16 1.15 1.06 1.03 1.09 1.32 1.62 1.76 1.66 1.48 1.35 1.33 1.27 1.29 1.44 1.48 1.40 1.19 1.05
1.45 1.46 1.41 1.23 1.09 1.00 0.90 0.80 0.76 0.79 0.87 0.89 0.91 0.93 0.92 0.95 1.01 1.03 1.03 1.09 1.13 1.09 1.05 1.07 1.20 1.41 1.59 1.47 1.26 1.16 1.22 1.28 1.38 1.47 1.51 1.42 1.21 1.08
1.06 1.09 1.04 0.98 0.90 0.76 0.70 0.68 0.66 0.71 0.81 0.85 0.86 0.87 0.89 0.94 0.95 1.00 1.02 1.04 1.10 1.10 1.06 1.02 1.03 1.15 1.31 1.29 1.17 1.03 1.04 1.17 1.27 1.30 1.29 1.30 1.25 1.29
0.72 0.69 0.64 0.64 0.65 0.61 0.58 0.57 0.59 0.64 0.71 0.80 0.84 0.84 0.84 0.88 0.93 0.97 1.04 1.13 1.13 1.11 1.11 1.02 0.98 1.14 1.23 1.34 1.29 0.99 0.90 1.09 1.22 1.22 1.25 1.37 1.37 1.27
0.50 0.50 0.49 0.49 0.52 0.53 0.56 0.57 0.58 0.61 0.67 0.74 0.79 0.85 0.85 0.84 0.87 0.95 1.00 1.05 1.06 1.04 1.04 1.04 1.07 1.17 1.24 1.34 1.28 1.08 0.98 0.99 1.19 1.40 1.33 1.31 1.29 1.20
0.51 0.50 0.49 0.50 0.52 0.52 0.56 0.60 0.64 0.67 0.69 0.77 0.80 0.84 0.90 0.92 0.91 0.94 0.98 0.98 1.01 1.02 1.02 1.06 1.10 1.18 1.24 1.28 1.32 1.28 1.22 1.13 1.14 1.26 1.28 1.35 1.24 1.01

GEFSNE_prec_meanprecacc_288.txt.gz
Total_Precipitation_Accumulation
2.18 2.32 2.49 2.61 2.56 2.39 2.37 2.34 2.31 2.11 1.90 1.75 1.57 1.37 1.44 1.55 1.78 1.57 1.48 1.45 1.20 1.05 1.00 1.11 1.30 1.41 1.58 1.77 2.06 2.43 2.72 2.88 2.95 2.70 2.41 2.30 2.28 2.25
1.99 2.12 2.18 2.25 2.44 2.44 2.31 2.30 2.23 2.11 1.95 1.73 1.62 1.46 1.58 1.52 1.70 1.51 1.53 1.60 1.30 1.15 1.03 1.01 1.08 1.07 1.06 1.14 1.26 1.45 1.84 1.94 2.07 2.14 2.11 1.96 1.93 1.95
1.60 1.73 1.88 2.14 2.44 2.49 2.46 2.35 2.27 2.16 1.92 1.72 1.53 1.42 1.68 1.78 1.71 1.60 1.58 1.54 1.31 1.22 1.08 0.98 0.97 0.97 0.93 0.88 0.94 1.07 1.28 1.38 1.39 1.44 1.59 1.69 1.79 1.89
1.38 1.50 1.68 1.97 2.32 2.54 2.63 2.52 2.38 2.27 2.12 1.98 1.65 1.40 1.48 1.80 1.92 1.86 1.68 1.53 1.37 1.30 1.13 1.01 0.96 0.90 0.87 0.86 0.85 0.88 0.94 1.03 1.14 1.12 1.14 1.31 1.59 1.81
1.33 1.39 1.45 1.65 1.85 2.05 2.24 2.38 2.37 2.35 2.33 2.09 1.80 1.53 1.46 1.58 1.81 1.82 1.77 1.77 1.53 1.45 1.42 1.27 1.12 1.00 0.92 0.85 0.84 0.85 0.85 0.88 0.89 0.93 0.96 1.04 1.21 1.45
1.09 1.19 1.28 1.34 1.51 1.66 1.76 1.98 2.20 2.44 2.50 2.34 2.08 1.76 1.64 1.52 1.60 1.77 1.84 1.79 1.72 1.54 1.50 1.37 1.35 1.27 1.14 0.99 0.87 0.82 0.85 0.90 0.88 0.84 0.88 0.94 0.98 1.09
1.01 1.01 1.08 1.12 1.20 1.37 1.41 1.64 1.97 2.25 2.34 2.41 2.27 1.96 1.70 1.53 1.32 1.44 1.70 1.92 1.91 1.84 1.83 1.59 1.45 1.30 1.21 1.17 1.10 0.97 0.87 0.84 0.84 0.85 0.90 0.96 1.04 1.09
1.00 0.99 1.02 0.98 0.95 1.02 1.15 1.27 1.55 1.78 1.93 2.01 2.02 1.85 1.64 1.52 1.48 1.45 1.53 1.66 1.72 1.62 1.66 1.74 1.66 1.51 1.40 1.27 1.29 1.32 1.22 1.10 1.01 0.99 1.00 1.01 1.08 1.17
1.04 1.08 1.04 0.97 1.00 1.01 1.03 1.03 1.08 1.26 1.49 1.70 1.72 1.62 1.69 1.60 1.54 1.44 1.45 1.45 1.46 1.57 1.64 1.72 1.70 1.59 1.51 1.49 1.51 1.39 1.32 1.23 1.15 1.11 1.10 1.10 1.08 1.10
0.98 0.95 1.04 1.06 1.09 1.14 1.07 1.11 1.03 1.01 1.11 1.15 1.29 1.51 1.67 1.84 1.82 1.72 1.72 1.65 1.56 1.67 1.69 1.66 1.56 1.49 1.40 1.37 1.43 1.29 1.18 1.14 1.12 1.11 1.09 1.08 1.06 1.05
0.96 0.97 1.06 1.11 1.25 1.29 1.19 1.24 1.19 1.16 1.14 1.24 1.33 1.45 1.55 1.66 1.81 1.84 1.80 1.77 1.64 1.58 1.57 1.52 1.42 1.44 1.42 1.30 1.22 1.22 1.11 1.05 1.01 1.00 1.01 1.01 1.04 1.13
1.11 1.11 1.33 1.28 1.27 1.20 1.14 1.29 1.26 1.13 1.06 1.10 1.16 1.24 1.29 1.40 1.54 1.58 1.72 1.80 1.71 1.57 1.37 1.33 1.33 1.37 1.42 1.30 1.17 1.09 1.05 1.07 1.02 0.98 0.97 1.00 1.10 1.11
1.22 1.19 1.16 1.31 1.24 1.14 1.11 1.14 1.28 1.18 1.11 1.14 1.14 1.14 1.16 1.20 1.26 1.33 1.46 1.61 1.69 1.55 1.34 1.35 1.34 1.32 1.26 1.12 1.09 1.05 1.02 1.01 1.01 1.01 1.05 1.09 1.14 1.13
1.24 1.13 1.03 1.26 1.21 1.12 1.01 1.02 1.18 1.26 1.25 1.30 1.29 1.20 1.12 1.08 1.08 1.13 1.22 1.34 1.46 1.48 1.44 1.43 1.41 1.35 1.31 1.17 1.04 1.00 1.02 1.03 1.04 1.00 0.98 1.17 1.25 1.31
1.12 1.14 1.12 1.16 1.06 1.00 1.09 1.12 1.15 1.17 1.25 1.31 1.21 1.07 1.01 1.00 1.08 1.18 1.29 1.36 1.43 1.40 1.35 1.37 1.41 1.47 1.47 1.34 1.19 1.09 1.07 1.04 1.01 0.99 0.96 0.99 1.06 1.23
0.94 0.99 1.00 0.97 0.94 0.96 1.02 1.11 1.16 1.21 1.23 1.17 1.06 0.93 0.95 1.02 1.07 1.12 1.27 1.40 1.52 1.48 1.42 1.48 1.53 1.57 1.60 1.43 1.33 1.24 1.19 1.14 1.08 1.09 1.07 1.02 0.99 1.04
1.16 1.03 0.97 0.94 0.91 0.89 0.94 0.99 1.05 1.05 1.07 1.04 1.00 0.99 0.97 0.99 1.01 1.01 1.13 1.22 1.25 1.21 1.24 1.33 1.52 1.67 1.66 1.62 1.55 1.37 1.34 1.31 1.30 1.33 1.32 1.23 1.06 0.99
1.54 1.46 1.38 1.24 1.13 1.01 0.95 0.91 0.89 0.92 0.95 0.99 0.99 0.97 0.98 1.03 1.08 1.08 1.11 1.17 1.17 1.08 1.05 1.11 1.34 1.64 1.80 1.71 1.54 1.41 1.38 1.32 1.32 1.47 1.50 1.42 1.21 1.06
1.46 1.47 1.44 1.25 1.11 1.02 0.92 0.82 0.77 0.79 0.88 0.90 0.93 0.96 0.96 1.00 1.05 1.06 1.06 1.11 1.14 1.10 1.06 1.08 1.22 1.42 1.60 1.49 1.29 1.20 1.27 1.34 1.43 1.50 1.53 1.44 1.23 1.10
1.08 1.11 1.06 1.01 0.92 0.79 0.73 0.72 0.68 0.73 0.83 0.87 0.88 0.90 0.93 0.98 0.99 1.04 1.05 1.07 1.12 1.12 1.07 1.03 1.04 1.16 1.32 1.30 1.18 1.04 1.06 1.20 1.32 1.33 1.31 1.32 1.27 1.31
0.74 0.71 0.66 0.67 0.67 0.63 0.61 0.60 0.62 0.67 0.74 0.82 0.86 0.86 0.87 0.91 0.96 1.01 1.08 1.17 1.16 1.13 1.13 1.03 1.00 1.16 1.25 1.36 1.31 1.00 0.91 1.10 1.23 1.25 1.28 1.39 1.39 1.28
0.52 0.52 0.52 0.52 0.54 0.55 0.59 0.60 0.61 0.65 0.71 0.77 0.82 0.87 0.88 0.88 0.91 0.98 1.04 1.10 1.10 1.08 1.08 1.07 1.10 1.21 1.29 1.39 1.32 1.12 1.01 1.01 1.21 1.42 1.35 1.34 1.32 1.22
0.53 0.53 0.51 0.53 0.55 0.55 0.60 0.65 0.69 0.71 0.73 0.81 0.84 0.87 0.93 0.95 0.95 0.98 1.02 1.02 1.06 1.06 1.06 1.10 1.13 1.21 1.27 1.32 1.36 1.32 1.26 1.17 1.18 1.29 1.31 1.38 1.26 1.02

GEFSNE_prec_meanprecacc_294.txt.gz
Total_Precipitation_Accumulation
2.21 2.35 2.52 2.66 2.60 2.41 2.39 2.38 2.36 2.16 1.94 1.78 1.59 1.39 1.46 1.56 1.79 1.58 1.49 1.45 1.20 1.05 1.00 1.12 1.32 1.43 1.59 1.79 2.10 2.47 2.77 2.94 3.02 2.76 2.45 2.32 2.30 2.27
2.01 2.15 2.20 2.27 2.47 2.47 2.34 2.34 2.28 2.15 1.99 1.76 1.64 1.47 1.59 1.52 1.70 1.52 1.54 1.61 1.30 1.15 1.03 1.02 1.12 1.10 1.07 1.17 1.28 1.47 1.87 1.99 2.14 2.20 2.14 1.97 1.94 1.97
1.61 1.74 1.91 2.16 2.46 2.51 2.48 2.38 2.32 2.20 1.96 1.75 1.55 1.43 1.70 1.79 1.72 1.61 1.58 1.54 1.31 1.22 1.08 0.98 1.03 1.02 0.94 0.91 0.95 1.08 1.30 1.42 1.44 1.48 1.61 1.69 1.80 1.90
1.40 1.53 1.72 2.00 2.34 2.55 2.65 2.54 2.41 2.30 2.16 2.00 1.68 1.41 1.50 1.81 1.93 1.87 1.68 1.53 1.38 1.31 1.14 1.02 0.99 0.99 0.91 0.88 0.86 0.89 0.95 1.05 1.15 1.13 1.15 1.32 1.60 1.82
1.36 1.43 1.48 1.68 1.88 2.08 2.27 2.41 2.38 2.36 2.34 2.11 1.82 1.55 1.47 1.61 1.84 1.84 1.77 1.77 1.53 1.46 1.43 1.28 1.13 1.07 1.01 0.89 0.86 0.85 0.86 0.89 0.90 0.94 0.98 1.05 1.22 1.46
1.12 1.22 1.32 1.38 1.55 1.68 1.79 2.01 2.22 2.46 2.52 2.37 2.10 1.78 1.66 1.54 1.62 1.80 1.87 1.82 1.73 1.55 1.51 1.38 1.35 1.29 1.23 1.07 0.92 0.84 0.87 0.93 0.91 0.87 0.90 0.96 1.00 1.10
1.04 1.03 1.11 1.16 1.24 1.41 1.44 1.67 1.99 2.27 2.37 2.45 2.31 2.00 1.74 1.58 1.36 1.47 1.73 1.95 1.94 1.86 1.85 1.60 1.46 1.31 1.25 1.23 1.16 1.02 0.91 0.90 0.89 0.88 0.92 0.98 1.06 1.11
1.02 1.02 1.05 1.00 0.99 1.07 1.20 1.31 1.59 1.82 1.96 2.04 2.06 1.89 1.69 1.56 1.52 1.48 1.56 1.70 1.76 1.66 1.69 1.76 1.69 1.53 1.42 1.31 1.34 1.38 1.28 1.16 1.06 1.02 1.04 1.05 1.11 1.19
1.05 1.10 1.07 1.00 1.03 1.04 1.07 1.08 1.13 1.32 1.53 1.73 1.76 1.65 1.72 1.63 1.57 1.47 1.49 1.49 1.49 1.60 1.67 1.75 1.72 1.62 1.53 1.52 1.55 1.44 1.38 1.29 1.20 1.15 1.15 1.16 1.12 1.13
1.00 0.97 1.06 1.09 1.12 1.17 1.10 1.14 1.07 1.05 1.15 1.18 1.32 1.54 1.70 1.87 1.85 1.75 1.76 1.68 1.60 1.70 1.71 1.69 1.58 1.50 1.41 1.39 1.45 1.32 1.24 1.19 1.17 1.15 1.14 1.13 1.09 1.08
0.97 0.99 1.08 1.13 1.29 1.34 1.23 1.28 1.22 1.18 1.17 1.27 1.36 1.48 1.60 1.70 1.84 1.87 1.83 1.80 1.68 1.61 1.59 1.55 1.43 1.46 1.45 1.33 1.25 1.26 1.15 1.10 1.07 1.05 1.06 1.05 1.07 1.15
1.12 1.13 1.35 1.31 1.31 1.24 1.18 1.33 1.29 1.15 1.08 1.12 1.18 1.27 1.32 1.43 1.57 1.60 1.73 1.83 1.74 1.59 1.38 1.35 1.34 1.39 1.46 1.34 1.20 1.13 1.09 1.12 1.09 1.04 1.02 1.05 1.13 1.14
1.23 1.20 1.17 1.34 1.27 1.18 1.14 1.17 1.31 1.20 1.13 1.16 1.15 1.15 1.17 1.22 1.28 1.35 1.48 1.63 1.72 1.58 1.36 1.37 1.36 1.34 1.29 1.16 1.13 1.09 1.05 1.05 1.05 1.06 1.10 1.15 1.19 1.16
1.25 1.13 1.04 1.29 1.25 1.16 1.06 1.06 1.21 1.29 1.27 1.32 1.31 1.22 1.13 1.10 1.09 1.15 1.24 1.37 1.49 1.51 1.47 1.45 1.44 1.38 1.34 1.21 1.08 1.05 1.06 1.08 1.09 1.05 1.02 1.21 1.29 1.35
1.17 1.18 1.15 1.19 1.11 1.05 1.13 1.15 1.17 1.19 1.28 1.32 1.22 1.09 1.03 1.03 1.10 1.21 1.31 1.39 1.47 1.44 1.39 1.39 1.44 1.50 1.50 1.37 1.23 1.13 1.12 1.09 1.06 1.02 0.99 1.01 1.08 1.25
0.97 1.01 1.01 0.99 0.98 0.99 1.04 1.12 1.17 1.22 1.25 1.19 1.08 0.96 0.97 1.05 1.09 1.14 1.30 1.43 1.56 1.52 1.46 1.51 1.56 1.61 1.64 1.46 1.36 1.27 1.22 1.19 1.13 1.14 1.12 1.06 1.03 1.07
1.18 1.04 0.98 0.95 0.93 0.91 0.95 1.00 1.06 1.07 1.09 1.07 1.04 1.02 1.00 1.02 1.04 1.04 1.16 1.25 1.27 1.24 1.27 1.36 1.56 1.71 1.71 1.66 1.60 1.41 1.38 1.36 1.35 1.38 1.37 1.27 1.10 1.02
1.55 1.47 1.39 1.26 1.14 1.03 0.97 0.93 0.91 0.93 0.96 1.01 1.02 1.01 1.02 1.07 1.11 1.11 1.14 1.20 1.20 1.11 1.08 1.14 1.38 1.69 1.85 1.76 1.59 1.46 1.43 1.37 1.38 1.52 1.55 1.47 1.25 1.10
1.47 1.48 1.45 1.27 1.12 1.03 0.93 0.83 0.79 0.81 0.90 0.91 0.94 0.98 0.99 1.04 1.09 1.09 1.09 1.13 1.17 1.13 1.08 1.11 1.25 1.46 1.64 1.53 1.33 1.24 1.31 1.37 1.47 1.55 1.59 1.49 1.28 1.15
1.09 1.12 1.07 1.02 0.94 0.81 0.75 0.74 0.71 0.76 0.86 0.89 0.90 0.91 0.94 1.00 1.03 1.07 1.08 1.09 1.15 1.14 1.10 1.05 1.07 1.19 1.36 1.34 1.22 1.08 1.09 1.23 1.34 1.37 1.35 1.36 1.31 1.36
0.75 0.73 0.68 0.68 0.68 0.64 0.62 0.61 0.64 0.69 0.76 0.85 0.89 0.88 0.88 0.94 0.99 1.04 1.11 1.20 1.19 1.15 1.15 1.05 1.01 1.18 1.28 1.40 1.36 1.04 0.95 1.15 1.28 1.29 1.33 1.44 1.43 1.32
0.53 0.54 0.53 0.53 0.56 0.57 0.60 0.62 0.63 0.66 0.72 0.79 0.84 0.90 0.91 0.91 0.94 1.01 1.07 1.13 1.13 1.10 1.09 1.09 1.12 1.23 1.33 1.44 1.38 1.17 1.06 1.06 1.27 1.47 1.40 1.38 1.36 1.26
0.53 0.53 0.52 0.54 0.56 0.56 0.61 0.66 0.70 0.73 0.75 0.82 0.85 0.89 0.95 0.98 0.98 1.01 1.04 1.05 1.08 1.09 1.08 1.12 1.15 1.24 1.30 1.35 1.40 1.36 1.30 1.21 1.22 1.33 1.35 1.42 1.29 1.06

GEFSNE_prec_meanprecacc_300.txt.gz
Total_Precipitation_Accumulation
2.22 2.36 2.53 2.67 2.61 2.44 2.43 2.42 2.40 2.18 1.96 1.79 1.60 1.40 1.47 1.58 1.81 1.60 1.51 1.46 1.21 1.06 1.02 1.14 1.33 1.44 1.61 1.82 2.12 2.50 2.81 2.97 3.04 2.79 2.48 2.36 2.33 2.30
2.03 2.16 2.21 2.29 2.48 2.48 2.36 2.38 2.32 2.18 2.01 1.77 1.65 1.49 1.61 1.55 1.73 1.53 1.55 1.61 1.30 1.16 1.04 1.03 1.13 1.11 1.07 1.18 1.29 1.48 1.89 2.01 2.15 2.23 2.18 2.01 1.97 1.99
1.63 1.77 1.92 2.18 2.48 2.53 2.51 2.41 2.34 2.24 1.98 1.76 1.56 1.44 1.72 1.82 1.74 1.62 1.59 1.55 1.32 1.23 1.08 0.99 1.03 1.03 0.96 0.92 0.96 1.09 1.31 1.43 1.46 1.52 1.66 1.72 1.82 1.92
1.43 1.56 1.74 2.02 2.37 2.59 2.68 2.57 2.44 2.33 2.18 2.02 1.69 1.43 1.51 1.84 1.96 1.89 1.70 1.54 1.39 1.32 1.14 1.02 1.00 0.99 0.93 0.89 0.86 0.89 0.95 1.06 1.19 1.18 1.20 1.35 1.61 1.84
1.39 1.45 1.51 1.71 1.92 2.11 2.31 2.44 2.42 2.41 2.38 2.13 1.83 1.56 1.49 1.63 1.87 1.86 1.79 1.79 1.55 1.48 1.44 1.29 1.14 1.08 1.03 0.90 0.87 0.86 0.87 0.90 0.93 0.99 1.02 1.08 1.23 1.47
1.14 1.24 1.34 1.41 1.58 1.71 1.83 2.05 2.26 2.49 2.55 2.39 2.13 1.80 1.68 1.57 1.65 1.81 1.89 1.84 1.76 1.57 1.53 1.39 1.36 1.30 1.25 1.08 0.93 0.85 0.88 0.94 0.93 0.90 0.94 0.99 1.01 1.11
1.07 1.06 1.13 1.18 1.27 1.45 1.48 1.71 2.02 2.30 2.40 2.47 2.34 2.03 1.76 1.60 1.37 1.48 1.75 1.98 1.98 1.92 1.90 1.63 1.47 1.32 1.27 1.25 1.18 1.04 0.92 0.91 0.91 0.91 0.96 1.01 1.08 1.12
1.05 1.04 1.07 1.03 1.01 1.09 1.23 1.35 1.62 1.85 1.99 2.08 2.10 1.93 1.72 1.58 1.54 1.50 1.58 1.72 1.78 1.70 1.77 1.85 1.74 1.57 1.46 1.34 1.36 1.40 1.30 1.17 1.08 1.06 1.08 1.09 1.13 1.20
1.07 1.12 1.09 1.02 1.05 1.06 1.10 1.11 1.16 1.36 1.57 1.77 1.80 1.69 1.76 1.68 1.61 1.50 1.51 1.51 1.50 1.61 1.70 1.81 1.80 1.70 1.61 1.58 1.58 1.46 1.41 1.31 1.23 1.19 1.20 1.20 1.14 1.15
1.02 0.99 1.08 1.10 1.14 1.19 1.12 1.16 1.10 1.09 1.20 1.23 1.36 1.58 1.75 1.92 1.90 1.79 1.79 1.71 1.62 1.72 1.73 1.71 1.61 1.56 1.49 1.48 1.54 1.37 1.26 1.22 1.20 1.19 1.18 1.17 1.11 1.10
0.99 1.00 1.10 1.14 1.31 1.36 1.25 1.31 1.25 1.22 1.21 1.32 1.41 1.52 1.63 1.74 1.88 1.91 1.87 1.85 1.71 1.64 1.62 1.57 1.45 1.48 1.48 1.39 1.35 1.35 1.23 1.15 1.11 1.10 1.10 1.09 1.09 1.17
1.13 1.14 1.36 1.32 1.32 1.25 1.19 1.36 1.32 1.19 1.12 1.16 1.21 1.31 1.36 1.46 1.60 1.64 1.78 1.87 1.78 1.63 1.40 1.38 1.36 1.41 1.49 1.38 1.27 1.20 1.17 1.21 1.18 1.11 1.08 1.09 1.16 1.16
1.24 1.21 1.18 1.34 1.28 1.20 1.17 1.19 1.34 1.24 1.17 1.20 1.19 1.18 1.20 1.25 1.31 1.38 1.52 1.68 1.77 1.62 1.39 1.40 1.39 1.37 1.31 1.19 1.19 1.16 1.13 1.13 1.14 1.16 1.19 1.22 1.24 1.18
1.27 1.15 1.06 1.31 1.26 1.17 1.08 1.08 1.24 1.32 1.31 1.36 1.35 1.26 1.16 1.11 1.11 1.18 1.28 1.40 1.52 1.55 1.51 1.50 1.47 1.41 1.37 1.24 1.13 1.11 1.13 1.16 1.17 1.14 1.10 1.28 1.35 1.40
1.19 1.20 1.17 1.21 1.13 1.07 1.15 1.16 1.18 1.20 1.30 1.36 1.27 1.13 1.07 1.05 1.12 1.23 1.33 1.42 1.49 1.47 1.41 1.43 1.48 1.54 1.54 1.41 1.27 1.19 1.18 1.17 1.14 1.10 1.06 1.07 1.13 1.28
0.99 1.04 1.03 1.00 1.00 1.00 1.05 1.13 1.17 1.23 1.27 1.22 1.11 0.99 1.01 1.08 1.11 1.16 1.31 1.45 1.58 1.55 1.49 1.54 1.60 1.67 1.70 1.51 1.41 1.31 1.27 1.25 1.21 1.21 1.18 1.12 1.07 1.11
1.21 1.06 0.99 0.97 0.94 0.92 0.95 1.00 1.07 1.08 1.11 1.09 1.07 1.05 1.03 1.05 1.07 1.07 1.19 1.27 1.29 1.27 1.30 1.39 1.59 1.74 1.75 1.71 1.65 1.47 1.43 1.41 1.41 1.44 1.42 1.32 1.15 1.07
1.59 1.50 1.41 1.27 1.15 1.04 0.98 0.94 0.91 0.94 0.97 1.02 1.04 1.03 1.05 1.09 1.14 1.14 1.17 1.22 1.22 1.14 1.11 1.17 1.40 1.72 1.88 1.80 1.63 1.49 1.47 1.41 1.42 1.57 1.59 1.50 1.29 1.14
1.51 1.52 1.48 1.28 1.13 1.05 0.94 0.84 0.80 0.82 0.91 0.93 0.96 1.00 1.01 1.06 1.12 1.13 1.12 1.17 1.20 1.17 1.12 1.14 1.28 1.49 1.68 1.58 1.39 1.29 1.35 1.41 1.50 1.59 1.62 1.52 1.31 1.18
1.14 1.16 1.11 1.06 0.98 0.84 0.78 0.77 0.73 0.78 0.87 0.90 0.91 0.93 0.96 1.02 1.05 1.10 1.12 1.13 1.18 1.17 1.13 1.09 1.11 1.23 1.40 1.38 1.27 1.14 1.15 1.27 1.37 1.40 1.38 1.39 1.34 1.39
0.78 0.76 0.71 0.71 0.71 0.67 0.64 0.64 0.66 0.71 0.77 0.86 0.90 0.89 0.90 0.95 1.01 1.07 1.15 1.25 1.24 1.20 1.19 1.08 1.05 1.23 1.33 1.45 1.40 1.10 1.01 1.20 1.31 1.32 1.35 1.47 1.46 1.35
0.54 0.54 0.55 0.55 0.58 0.59 0.62 0.63 0.64 0.67 0.73 0.80 0.85 0.90 0.92 0.92 0.95 1.03 1.10 1.16 1.17 1.14 1.13 1.12 1.15 1.26 1.37 1.49 1.42 1.21 1.10 1.11 1.30 1.50 1.42 1.41 1.38 1.28
0.54 0.53 0.52 0.54 0.58 0.58 0.63 0.68 0.71 0.74 0.75 0.83 0.86 0.90 0.96 0.99 0.99 1.02 1.06 1.07 1.11 1.12 1.12 1.15 1.18 1.26 1.33 1.39 1.43 1.39 1.33 1.24 1.24 1.36 1.37 1.43 1.31 1.07

GEFSNE_prec_meanprecacc_306.txt.gz
Total_Precipitation_Accumulation
2.23 2.37 2.55 2.68 2.63 2.46 2.45 2.44 2.42 2.21 1.98 1.80 1.62 1.41 1.48 1.60 1.83 1.62 1.54 1.53 1.28 1.12 1.07 1.20 1.41 1.54 1.72 1.94 2.24 2.60 2.89 3.04 3.10 2.83 2.54 2.42 2.40 2.36
2.04 2.17 2.22 2.30 2.50 2.50 2.38 2.40 2.35 2.21 2.03 1.79 1.67 1.50 1.63 1.56 1.74 1.54 1.56 1.64 1.33 1.19 1.07 1.07 1.19 1.19 1.15 1.26 1.36 1.53 1.93 2.05 2.20 2.28 2.24 2.07 2.04 2.05
1.65 1.78 1.94 2.20 2.50 2.54 2.52 2.43 2.36 2.26 2.00 1.78 1.58 1.47 1.75 1.84 1.75 1.63 1.60 1.56 1.33 1.25 1.10 1.00 1.05 1.05 0.98 0.94 0.97 1.10 1.33 1.46 1.50 1.58 1.71 1.77 1.87 1.95
1.45 1.58 1.76 2.04 2.39 2.60 2.70 2.59 2.46 2.36 2.21 2.04 1.70 1.45 1.54 1.86 1.98 1.90 1.71 1.55 1.40 1.34 1.16 1.04 1.01 1.00 0.94 0.90 0.88 0.91 0.97 1.08 1.21 1.22 1.23 1.37 1.64 1.86
1.41 1.49 1.54 1.75 1.95 2.14 2.33 2.46 2.44 2.44 2.41 2.16 1.85 1.58 1.51 1.66 1.90 1.88 1.81 1.80 1.56 1.49 1.45 1.30 1.15 1.10 1.05 0.92 0.89 0.87 0.89 0.93 0.94 0.99 1.03 1.09 1.24 1.49
1.15 1.26 1.36 1.43 1.62 1.75 1.86 2.08 2.28 2.53 2.59 2.43 2.17 1.84 1.72 1.60 1.67 1.84 1.90 1.86 1.77 1.58 1.53 1.40 1.37 1.31 1.27 1.11 0.95 0.87 0.89 0.95 0.94 0.91 0.94 1.00 1.02 1.12
1.07 1.07 1.14 1.21 1.29 1.48 1.52 1.74 2.05 2.35 2.44 2.52 2.39 2.08 1.82 1.65 1.40 1.50 1.76 1.99 1.99 1.92 1.90 1.64 1.48 1.33 1.30 1.29 1.22 1.08 0.94 0.92 0.92 0.92 0.97 1.02 1.09 1.13
1.06 1.05 1.08 1.05 1.03 1.12 1.26 1.37 1.65 1.89 2.03 2.12 2.15 1.98 1.76 1.63 1.58 1.53 1.60 1.74 1.79 1.71 1.77 1.85 1.76 1.60 1.50 1.38 1.40 1.44 1.33 1.20 1.10 1.07 1.09 1.10 1.15 1.21
1.08 1.13 1.10 1.04 1.08 1.08 1.12 1.14 1.19 1.39 1.61 1.83 1.86 1.75 1.82 1.73 1.65 1.53 1.54 1.54 1.51 1.62 1.72 1.82 1.82 1.72 1.64 1.63 1.63 1.50 1.44 1.34 1.26 1.22 1.23 1.22 1.17 1.16
1.02 1.00 1.09 1.12 1.16 1.22 1.14 1.18 1.12 1.11 1.22 1.25 1.39 1.64 1.81 1.98 1.95 1.83 1.82 1.74 1.64 1.74 1.75 1.74 1.63 1.58 1.51 1.52 1.59 1.43 1.31 1.26 1.24 1.24 1.23 1.22 1.15 1.13
0.99 1.01 1.11 1.16 1.33 1.39 1.28 1.32 1.27 1.23 1.23 1.34 1.43 1.55 1.67 1.78 1.94 1.96 1.90 1.88 1.74 1.66 1.64 1.60 1.48 1.52 1.52 1.43 1.39 1.39 1.27 1.20 1.17 1.17 1.18 1.15 1.14 1.21
1.14 1.15 1.38 1.35 1.35 1.29 1.22 1.37 1.33 1.20 1.13 1.17 1.23 1.33 1.38 1.49 1.63 1.68 1.83 1.94 1.84 1.68 1.45 1.41 1.40 1.46 1.54 1.44 1.34 1.25 1.22 1.26 1.23 1.18 1.17 1.18 1.23 1.21
1.27 1.24 1.20 1.37 1.31 1.23 1.21 1.22 1.35 1.26 1.17 1.21 1.21 1.21 1.24 1.29 1.35 1.42 1.56 1.73 1.82 1.67 1.43 1.45 1.45 1.43 1.36 1.24 1.26 1.22 1.18 1.18 1.20 1.23 1.28 1.31 1.31 1.24
1.29 1.18 1.09 1.34 1.30 1.21 1.11 1.11 1.26 1.33 1.32 1.37 1.36 1.28 1.20 1.16 1.16 1.22 1.32 1.44 1.56 1.58 1.54 1.54 1.52 1.47 1.44 1.29 1.19 1.18 1.19 1.21 1.23 1.22 1.20 1.39 1.43 1.46
1.22 1.24 1.21 1.24 1.16 1.10 1.18 1.20 1.20 1.21 1.31 1.37 1.28 1.15 1.09 1.09 1.16 1.27 1.37 1.45 1.52 1.50 1.44 1.46 1.53 1.59 1.60 1.47 1.34 1.25 1.25 1.23 1.20 1.17 1.16 1.18 1.23 1.37
1.03 1.08 1.07 1.04 1.03 1.03 1.08 1.17 1.20 1.25 1.29 1.23 1.13 1.01 1.03 1.10 1.14 1.19 1.35 1.49 1.62 1.58 1.51 1.57 1.64 1.71 1.76 1.57 1.48 1.39 1.33 1.31 1.27 1.28 1.26 1.21 1.16 1.18
1.25 1.11 1.04 1.01 0.98 0.96 0.98 1.03 1.09 1.10 1.13 1.11 1.09 1.07 1.05 1.07 1.09 1.10 1.21 1.30 1.33 1.30 1.33 1.43 1.63 1.78 1.78 1.76 1.72 1.54 1.51 1.49 1.48 1.51 1.49 1.39 1.22 1.14
1.62 1.53 1.44 1.31 1.19 1.07 1.01 0.96 0.93 0.96 1.01 1.04 1.06 1.05 1.06 1.11 1.16 1.16 1.19 1.25 1.25 1.17 1.15 1.21 1.44 1.75 1.92 1.85 1.68 1.55 1.53 1.47 1.49 1.64 1.66 1.57 1.36 1.21
1.54 1.55 1.52 1.32 1.16 1.07 0.98 0.87 0.81 0.84 0.93 0.96 0.99 1.02 1.03 1.08 1.13 1.14 1.14 1.19 1.22 1.20 1.16 1.18 1.32 1.52 1.71 1.62 1.43 1.34 1.39 1.45 1.55 1.64 1.67 1.56 1.36 1.23
1.16 1.19 1.14 1.08 1.01 0.87 0.81 0.80 0.76 0.80 0.90 0.94 0.95 0.96 0.99 1.05 1.07 1.12 1.14 1.16 1.22 1.21 1.17 1.13 1.16 1.28 1.44 1.41 1.30 1.18 1.20 1.32 1.41 1.43 1.42 1.42 1.37 1.42
0.79 0.77 0.73 0.73 0.73 0.69 0.66 0.66 0.68 0.72 0.79 0.88 0.93 0.92 0.93 0.98 1.03 1.09 1.17 1.27 1.26 1.23 1.22 1.12 1.10 1.28 1.38 1.48 1.43 1.13 1.06 1.26 1.36 1.35 1.39 1.50 1.49 1.37
0.55 0.56 0.56 0.57 0.59 0.60 0.63 0.64 0.65 0.68 0.74 0.81 0.86 0.92 0.94 0.94 0.97 1.04 1.12 1.18 1.20 1.17 1.16 1.15 1.19 1.31 1.42 1.54 1.47 1.25 1.14 1.16 1.36 1.54 1.47 1.44 1.41 1.30
0.55 0.55 0.54 0.56 0.59 0.59 0.64 0.69 0.72 0.75 0.77 0.84 0.87 0.91 0.98 1.00 1.01 1.04 1.08 1.09 1.13 1.15 1.15 1.18 1.21 1.30 1.37 1.44 1.49 1.44 1.37 1.28 1.28 1.40 1.42 1.48 1.35 1.09

GEFSNE_prec_meanprecacc_312.txt.gz
Total_Precipitation_Accumulation
2.24 2.38 2.56 2.69 2.64 2.47 2.46 2.46 2.45 2.23 2.01 1.82 1.64 1.43 1.50 1.62 1.85 1.65 1.57 1.56 1.31 1.16 1.11 1.24 1.45 1.59 1.80 2.05 2.36 2.72 3.02 3.13 3.17 2.89 2.59 2.49 2.48 2.43
2.04 2.18 2.23 2.30 2.51 2.51 2.39 2.41 2.36 2.23 2.06 1.82 1.70 1.53 1.65 1.60 1.77 1.57 1.58 1.67 1.37 1.23 1.13 1.14 1.25 1.23 1.20 1.31 1.43 1.64 2.06 2.16 2.29 2.35 2.31 2.15 2.15 2.16
1.65 1.78 1.94 2.20 2.50 2.55 2.53 2.44 2.37 2.27 2.02 1.79 1.59 1.49 1.78 1.88 1.79 1.66 1.63 1.59 1.37 1.29 1.17 1.08 1.12 1.11 1.04 0.99 1.02 1.16 1.41 1.57 1.62 1.67 1.79 1.86 1.98 2.07
1.45 1.58 1.77 2.05 2.40 2.61 2.70 2.59 2.47 2.37 2.22 2.05 1.72 1.46 1.57 1.88 2.00 1.93 1.74 1.58 1.42 1.37 1.21 1.08 1.05 1.04 0.98 0.94 0.91 0.94 1.03 1.16 1.30 1.30 1.30 1.44 1.73 1.97
1.41 1.49 1.55 1.76 1.96 2.15 2.34 2.47 2.45 2.45 2.42 2.17 1.87 1.60 1.53 1.68 1.92 1.91 1.84 1.83 1.58 1.51 1.48 1.32 1.18 1.12 1.07 0.94 0.91 0.91 0.93 0.98 0.99 1.03 1.06 1.12 1.29 1.54
1.16 1.26 1.37 1.44 1.63 1.77 1.87 2.09 2.30 2.55 2.60 2.45 2.18 1.85 1.74 1.62 1.70 1.87 1.94 1.89 1.80 1.60 1.55 1.42 1.39 1.33 1.29 1.13 0.97 0.89 0.91 0.98 0.96 0.92 0.96 1.01 1.04 1.14
1.08 1.07 1.15 1.21 1.30 1.50 1.53 1.76 2.07 2.37 2.46 2.53 2.41 2.09 1.83 1.68 1.44 1.55 1.81 2.03 2.03 1.96 1.94 1.67 1.50 1.34 1.31 1.30 1.24 1.10 0.96 0.94 0.93 0.93 0.98 1.03 1.10 1.14
1.06 1.05 1.09 1.05 1.04 1.13 1.27 1.39 1.68 1.92 2.06 2.14 2.17 2.00 1.79 1.66 1.61 1.57 1.65 1.80 1.85 1.75 1.81 1.90 1.79 1.62 1.51 1.39 1.42 1.45 1.35 1.23 1.12 1.09 1.10 1.11 1.15 1.22
1.09 1.14 1.10 1.05 1.09 1.09 1.14 1.16 1.21 1.41 1.64 1.85 1.88 1.78 1.85 1.76 1.69 1.58 1.59 1.59 1.56 1.67 1.76 1.86 1.86 1.76 1.66 1.65 1.65 1.51 1.45 1.35 1.29 1.26 1.26 1.24 1.18 1.17
1.03 1.00 1.09 1.13 1.17 1.23 1.15 1.20 1.13 1.13 1.24 1.27 1.41 1.66 1.85 2.02 1.99 1.88 1.87 1.78 1.68 1.77 1.80 1.79 1.68 1.62 1.54 1.54 1.61 1.44 1.33 1.27 1.25 1.26 1.28 1.26 1.18 1.15
1.01 1.03 1.12 1.17 1.35 1.41 1.29 1.34 1.28 1.25 1.24 1.36 1.44 1.57 1.69 1.81 1.97 2.01 1.95 1.93 1.79 1.70 1.68 1.65 1.55 1.58 1.56 1.46 1.41 1.41 1.29 1.22 1.19 1.18 1.20 1.19 1.18 1.24
1.16 1.17 1.40 1.37 1.37 1.31 1.24 1.40 1.36 1.22 1.15 1.19 1.25 1.35 1.40 1.51 1.65 1.70 1.87 2.00 1.91 1.73 1.49 1.47 1.46 1.52 1.59 1.47 1.37 1.28 1.24 1.27 1.24 1.20 1.18 1.20 1.26 1.24
1.29 1.26 1.22 1.40 1.34 1.26 1.23 1.25 1.40 1.29 1.20 1.23 1.22 1.22 1.25 1.30 1.36 1.44 1.59 1.77 1.88 1.74 1.51 1.52 1.50 1.48 1.41 1.28 1.29 1.25 1.20 1.20 1.20 1.24 1.29 1.32 1.32 1.26
1.32 1.22 1.12 1.37 1.33 1.24 1.14 1.15 1.31 1.37 1.35 1.39 1.38 1.30 1.21 1.17 1.17 1.24 1.34 1.47 1.60 1.63 1.60 1.61 1.59 1.53 1.49 1.33 1.22 1.20 1.22 1.24 1.25 1.23 1.21 1.39 1.44 1.48
1.25 1.28 1.25 1.27 1.19 1.12 1.20 1.23 1.24 1.25 1.34 1.40 1.30 1.17 1.11 1.10 1.17 1.28 1.40 1.48 1.56 1.54 1.49 1.52 1.58 1.65 1.65 1.51 1.37 1.26 1.26 1.25 1.22 1.20 1.18 1.19 1.24 1.39
1.06 1.12 1.12 1.07 1.07 1.06 1.11 1.20 1.23 1.28 1.32 1.26 1.15 1.03 1.05 1.12 1.16 1.20 1.36 1.51 1.65 1.61 1.55 1.61 1.68 1.76 1.81 1.62 1.51 1.41 1.35 1.33 1.29 1.31 1.30 1.24 1.19 1.21
1.27 1.13 1.06 1.03 1.01 0.99 1.01 1.06 1.13 1.14 1.16 1.14 1.11 1.09 1.07 1.10 1.11 1.11 1.23 1.31 1.34 1.32 1.36 1.46 1.68 1.84 1.84 1.81 1.76 1.57 1.53 1.50 1.50 1.55 1.54 1.46 1.29 1.20
1.63 1.54 1.46 1.32 1.20 1.08 1.03 0.99 0.96 0.99 1.03 1.07 1.08 1.07 1.10 1.15 1.19 1.18 1.21 1.26 1.27 1.19 1.17 1.24 1.48 1.81 1.97 1.89 1.71 1.58 1.56 1.50 1.51 1.67 1.72 1.64 1.44 1.29
1.56 1.57 1.53 1.33 1.17 1.09 0.99 0.89 0.84 0.87 0.96 0.98 1.01 1.04 1.06 1.11 1.17 1.17 1.16 1.21 1.25 1.22 1.19 1.22 1.37 1.57 1.76 1.66 1.47 1.38 1.43 1.48 1.58 1.68 1.73 1.62 1.43 1.32
1.17 1.20 1.15 1.09 1.01 0.88 0.83 0.82 0.78 0.83 0.92 0.96 0.97 0.98 1.01 1.07 1.10 1.16 1.17 1.19 1.25 1.25 1.20 1.16 1.19 1.31 1.47 1.44 1.34 1.23 1.25 1.36 1.45 1.48 1.47 1.49 1.44 1.50
0.80 0.78 0.74 0.74 0.74 0.70 0.68 0.68 0.71 0.75 0.81 0.90 0.94 0.93 0.94 0.99 1.05 1.11 1.19 1.29 1.29 1.26 1.26 1.16 1.13 1.31 1.39 1.50 1.46 1.17 1.11 1.31 1.41 1.40 1.45 1.58 1.56 1.44
0.56 0.57 0.58 0.58 0.61 0.61 0.64 0.66 0.68 0.71 0.76 0.83 0.87 0.93 0.95 0.94 0.97 1.05 1.13 1.20 1.22 1.20 1.20 1.20 1.24 1.34 1.44 1.57 1.49 1.28 1.19 1.20 1.40 1.61 1.54 1.53 1.49 1.36
0.57 0.57 0.56 0.58 0.61 0.62 0.66 0.71 0.75 0.78 0.80 0.87 0.89 0.93 0.99 1.02 1.02 1.05 1.09 1.10 1.16 1.17 1.18 1.22 1.25 1.33 1.40 1.47 1.52 1.47 1.40 1.32 1.34 1.47 1.50 1.57 1.43 1.16

GEFSNE_prec_meanprecacc_318.txt.gz
Total_Precipitation_Accumulation
2.24 2.38 2.56 2.70 2.65 2.49 2.48 2.49 2.49 2.28 2.04 1.86 1.66 1.45 1.51 1.63 1.86 1.67 1.58 1.58 1.33 1.17 1.12 1.26 1.48 1.63 1.85 2.09 2.40 2.76 3.06 3.18 3.21 2.92 2.63 2.52 2.51 2.46
2.05 2.18 2.23 2.31 2.53 2.54 2.41 2.43 2.38 2.25 2.10 1.86 1.73 1.54 1.66 1.60 1.77 1.58 1.59 1.68 1.39 1.26 1.15 1.17 1.28 1.27 1.24 1.35 1.46 1.66 2.09 2.20 2.33 2.39 2.35 2.18 2.18 2.20
1.66 1.79 1.95 2.21 2.53 2.59 2.56 2.46 2.39 2.28 2.06 1.82 1.61 1.50 1.79 1.89 1.80 1.67 1.65 1.62 1.40 1.33 1.20 1.11 1.15 1.16 1.10 1.03 1.04 1.18 1.43 1.62 1.69 1.76 1.88 1.94 2.05 2.14
1.46 1.59 1.78 2.07 2.42 2.64 2.73 2.61 2.48 2.38 2.24 2.08 1.73 1.48 1.58 1.90 2.01 1.93 1.75 1.60 1.45 1.42 1.26 1.12 1.08 1.10 1.06 1.00 0.95 0.97 1.06 1.20 1.38 1.42 1.42 1.56 1.84 2.08
1.42 1.49 1.55 1.77 1.97 2.16 2.36 2.48 2.46 2.46 2.43 2.19 1.89 1.61 1.54 1.69 1.94 1.92 1.86 1.86 1.61 1.55 1.52 1.36 1.22 1.16 1.12 0.99 0.95 0.94 0.97 1.02 1.04 1.09 1.13 1.20 1.36 1.62
1.16 1.27 1.37 1.44 1.64 1.78 1.89 2.10 2.31 2.56 2.62 2.46 2.20 1.87 1.75 1.64 1.72 1.89 1.95 1.91 1.82 1.63 1.59 1.46 1.43 1.36 1.33 1.16 1.01 0.91 0.93 1.00 1.00 0.98 1.01 1.06 1.09 1.20
1.08 1.08 1.15 1.22 1.32 1.52 1.55 1.77 2.09 2.39 2.48 2.55 2.42 2.11 1.85 1.70 1.46 1.56 1.81 2.04 2.04 1.97 1.96 1.69 1.54 1.37 1.33 1.34 1.28 1.13 0.99 0.95 0.95 0.96 1.02 1.07 1.14 1.18
1.08 1.07 1.10 1.07 1.05 1.15 1.29 1.41 1.70 1.95 2.09 2.17 2.18 2.03 1.81 1.68 1.63 1.59 1.66 1.81 1.86 1.76 1.83 1.92 1.82 1.66 1.55 1.42 1.45 1.48 1.37 1.25 1.14 1.11 1.14 1.14 1.20 1.25
1.11 1.16 1.12 1.06 1.10 1.11 1.15 1.17 1.22 1.43 1.66 1.87 1.91 1.79 1.87 1.78 1.71 1.60 1.61 1.61 1.58 1.68 1.77 1.88 1.88 1.79 1.70 1.69 1.69 1.54 1.47 1.38 1.31 1.28 1.28 1.26 1.20 1.19
1.06 1.02 1.11 1.15 1.19 1.24 1.16 1.20 1.14 1.13 1.25 1.28 1.42 1.68 1.86 2.03 2.01 1.91 1.89 1.81 1.70 1.78 1.81 1.81 1.70 1.64 1.57 1.57 1.66 1.49 1.37 1.30 1.27 1.28 1.30 1.28 1.19 1.16
1.04 1.06 1.15 1.20 1.38 1.44 1.32 1.36 1.30 1.26 1.25 1.37 1.46 1.59 1.73 1.83 1.99 2.04 2.00 1.97 1.81 1.71 1.69 1.67 1.57 1.59 1.57 1.48 1.45 1.46 1.34 1.26 1.22 1.20 1.21 1.21 1.19 1.25
1.19 1.20 1.44 1.40 1.41 1.35 1.27 1.43 1.40 1.25 1.17 1.21 1.26 1.36 1.42 1.54 1.68 1.72 1.89 2.03 1.93 1.75 1.50 1.49 1.48 1.54 1.62 1.50 1.39 1.31 1.28 1.33 1.28 1.23 1.21 1.22 1.27 1.25
1.31 1.29 1.25 1.41 1.36 1.28 1.27 1.28 1.43 1.33 1.23 1.25 1.24 1.23 1.26 1.32 1.38 1.46 1.61 1.79 1.90 1.76 1.52 1.54 1.53 1.51 1.44 1.31 1.33 1.30 1.26 1.24 1.25 1.28 1.31 1.34 1.34 1.27
1.34 1.24 1.14 1.39 1.34 1.25 1.15 1.16 1.33 1.40 1.38 1.42 1.41 1.31 1.22 1.19 1.19 1.26 1.36 1.50 1.63 1.65 1.62 1.63 1.61 1.56 1.52 1.37 1.26 1.25 1.29 1.31 1.31 1.28 1.24 1.42 1.46 1.50
1.26 1.29 1.26 1.29 1.21 1.13 1.22 1.24 1.26 1.27 1.36 1.43 1.33 1.19 1.12 1.12 1.19 1.30 1.42 1.51 1.59 1.57 1.51 1.53 1.60 1.67 1.69 1.56 1.41 1.31 1.32 1.32 1.31 1.28 1.23 1.23 1.27 1.41
1.08 1.14 1.13 1.09 1.09 1.08 1.13 1.21 1.25 1.30 1.35 1.29 1.18 1.06 1.07 1.14 1.18 1.23 1.38 1.54 1.67 1.64 1.57 1.63 1.70 1.78 1.84 1.66 1.56 1.46 1.40 1.38 1.35 1.39 1.38 1.30 1.23 1.24
1.29 1.14 1.07 1.04 1.02 1.00 1.02 1.07 1.14 1.16 1.19 1.16 1.13 1.12 1.11 1.13 1.14 1.14 1.26 1.34 1.37 1.34 1.38 1.49 1.71 1.87 1.87 1.84 1.80 1.62 1.58 1.55 1.55 1.60 1.60 1.52 1.34 1.23
1.66 1.56 1.47 1.32 1.20 1.09 1.04 1.00 0.97 1.00 1.05 1.09 1.10 1.10 1.13 1.18 1.24 1.23 1.26 1.31 1.30 1.21 1.19 1.26 1.51 1.84 2.00 1.93 1.76 1.62 1.60 1.55 1.57 1.74 1.77 1.68 1.47 1.32
1.58 1.57 1.54 1.34 1.18 1.10 1.00 0.90 0.85 0.88 0.98 1.00 1.03 1.07 1.08 1.14 1.19 1.20 1.19 1.24 1.28 1.25 1.21 1.25 1.40 1.61 1.79 1.69 1.50 1.41 1.47 1.53 1.63 1.74 1.78 1.66 1.46 1.35
1.18 1.21 1.15 1.10 1.02 0.89 0.84 0.83 0.80 0.84 0.94 0.97 0.99 1.01 1.03 1.09 1.12 1.18 1.19 1.20 1.27 1.27 1.23 1.19 1.22 1.34 1.49 1.46 1.36 1.26 1.28 1.40 1.50 1.53 1.53 1.53 1.48 1.53
0.81 0.79 0.74 0.75 0.75 0.71 0.69 0.70 0.73 0.77 0.83 0.91 0.95 0.94 0.95 1.00 1.07 1.13 1.22 1.32 1.31 1.28 1.27 1.18 1.15 1.33 1.42 1.53 1.49 1.19 1.14 1.35 1.45 1.46 1.50 1.63 1.61 1.48
0.57 0.58 0.59 0.59 0.61 0.62 0.65 0.67 0.69 0.73 0.79 0.85 0.90 0.95 0.97 0.96 0.99 1.07 1.15 1.23 1.24 1.22 1.22 1.22 1.26 1.36 1.46 1.59 1.51 1.30 1.21 1.24 1.44 1.66 1.60 1.59 1.55 1.42
0.58 0.58 0.57 0.59 0.62 0.63 0.67 0.72 0.76 0.79 0.81 0.89 0.92 0.96 1.02 1.05 1.04 1.07 1.11 1.12 1.18 1.19 1.20 1.24 1.27 1.35 1.42 1.49 1.54 1.49 1.43 1.35 1.37 1.51 1.55 1.64 1.49 1.22

GEFSNE_prec_meanprecacc_324.txt.gz
Total_Precipitation_Accumulation
2.26 2.40 2.58 2.71 2.66 2.50 2.49 2.50 2.49 2.29 2.07 1.90 1.69 1.47 1.52 1.63 1.86 1.68 1.59 1.59 1.34 1.18 1.13 1.27 1.48 1.64 1.87 2.11 2.44 2.80 3.11 3.22 3.24 2.96 2.66 2.56 2.54 2.49
2.06 2.20 2.25 2.33 2.54 2.55 2.42 2.44 2.39 2.26 2.11 1.87 1.75 1.56 1.67 1.60 1.78 1.58 1.60 1.69 1.40 1.26 1.16 1.18 1.29 1.27 1.25 1.37 1.48 1.69 2.11 2.22 2.34 2.41 2.37 2.21 2.21 2.23
1.67 1.81 1.97 2.23 2.54 2.61 2.58 2.48 2.41 2.29 2.07 1.83 1.61 1.51 1.81 1.89 1.80 1.67 1.65 1.62 1.41 1.34 1.21 1.12 1.16 1.17 1.12 1.05 1.07 1.21 1.45 1.64 1.71 1.79 1.91 1.96 2.08 2.17
1.46 1.60 1.79 2.09 2.44 2.66 2.76 2.65 2.50 2.40 2.26 2.09 1.74 1.48 1.59 1.91 2.02 1.94 1.75 1.60 1.46 1.42 1.27 1.14 1.11 1.12 1.09 1.01 0.98 1.01 1.08 1.22 1.40 1.44 1.44 1.58 1.86 2.11
1.42 1.49 1.56 1.78 1.99 2.19 2.38 2.52 2.49 2.48 2.45 2.21 1.90 1.62 1.54 1.70 1.95 1.94 1.88 1.87 1.62 1.56 1.53 1.37 1.24 1.19 1.14 1.01 0.98 0.98 1.01 1.05 1.06 1.11 1.15 1.21 1.37 1.64
1.17 1.27 1.37 1.45 1.64 1.79 1.92 2.14 2.34 2.59 2.64 2.48 2.21 1.88 1.76 1.65 1.74 1.90 1.97 1.92 1.83 1.64 1.61 1.47 1.45 1.38 1.35 1.19 1.04 0.95 0.97 1.04 1.04 1.00 1.03 1.08 1.10 1.21
1.10 1.09 1.17 1.23 1.34 1.54 1.57 1.80 2.12 2.41 2.50 2.57 2.45 2.13 1.86 1.72 1.48 1.58 1.84 2.05 2.05 1.98 1.97 1.71 1.55 1.39 1.35 1.36 1.31 1.16 1.00 0.97 0.97 0.99 1.05 1.10 1.17 1.20
1.11 1.09 1.12 1.09 1.07 1.16 1.31 1.43 1.72 1.97 2.11 2.19 2.21 2.05 1.83 1.70 1.65 1.61 1.68 1.83 1.87 1.76 1.84 1.93 1.83 1.67 1.55 1.43 1.46 1.50 1.39 1.26 1.15 1.12 1.16 1.16 1.21 1.27
1.17 1.20 1.14 1.08 1.12 1.12 1.16 1.19 1.25 1.46 1.69 1.91 1.94 1.83 1.89 1.80 1.73 1.63 1.64 1.63 1.60 1.69 1.78 1.88 1.88 1.79 1.71 1.70 1.70 1.55 1.48 1.39 1.32 1.29 1.29 1.27 1.20 1.20
1.11 1.08 1.16 1.17 1.21 1.26 1.18 1.23 1.16 1.16 1.27 1.30 1.46 1.71 1.89 2.06 2.04 1.93 1.93 1.84 1.73 1.80 1.82 1.82 1.70 1.64 1.57 1.58 1.67 1.50 1.37 1.31 1.28 1.29 1.31 1.29 1.20 1.16
1.07 1.11 1.21 1.25 1.43 1.47 1.34 1.39 1.32 1.28 1.28 1.40 1.49 1.63 1.76 1.87 2.03 2.07 2.02 2.00 1.85 1.74 1.71 1.68 1.57 1.59 1.58 1.48 1.45 1.47 1.35 1.27 1.23 1.22 1.23 1.22 1.21 1.26
1.22 1.24 1.49 1.48 1.49 1.41 1.31 1.45 1.42 1.27 1.19 1.23 1.29 1.38 1.44 1.56 1.71 1.75 1.91 2.05 1.96 1.78 1.52 1.50 1.49 1.54 1.62 1.50 1.40 1.31 1.28 1.33 1.29 1.24 1.22 1.24 1.30 1.27
1.33 1.32 1.29 1.48 1.43 1.35 1.32 1.32 1.44 1.34 1.24 1.26 1.25 1.25 1.28 1.34 1.40 1.47 1.62 1.81 1.92 1.78 1.54 1.56 1.54 1.52 1.45 1.32 1.33 1.30 1.26 1.24 1.25 1.28 1.32 1.36 1.36 1.29
1.37 1.26 1.16 1.42 1.38 1.30 1.19 1.20 1.37 1.42 1.39 1.43 1.42 1.33 1.24 1.20 1.20 1.27 1.38 1.51 1.64 1.67 1.65 1.66 1.63 1.57 1.53 1.38 1.27 1.26 1.29 1.32 1.31 1.28 1.25 1.43 1.48 1.52
1.30 1.32 1.28 1.31 1.23 1.16 1.25 1.27 1.30 1.29 1.37 1.44 1.34 1.21 1.14 1.14 1.21 1.32 1.45 1.54 1.62 1.59 1.53 1.56 1.62 1.69 1.71 1.57 1.42 1.32 1.33 1.33 1.32 1.29 1.24 1.24 1.28 1.43
1.14 1.20 1.18 1.12 1.12 1.12 1.16 1.24 1.27 1.32 1.35 1.30 1.19 1.07 1.10 1.18 1.22 1.26 1.42 1.56 1.70 1.66 1.59 1.64 1.72 1.80 1.86 1.67 1.57 1.47 1.41 1.39 1.36 1.40 1.41 1.32 1.25 1.26
1.35 1.21 1.12 1.07 1.05 1.03 1.05 1.10 1.17 1.18 1.20 1.17 1.15 1.13 1.13 1.17 1.19 1.19 1.30 1.37 1.39 1.36 1.40 1.50 1.72 1.89 1.89 1.86 1.81 1.63 1.59 1.56 1.56 1.61 1.62 1.54 1.36 1.25
1.72 1.61 1.52 1.36 1.24 1.12 1.07 1.03 1.00 1.03 1.07 1.11 1.12 1.12 1.15 1.21 1.27 1.27 1.30 1.35 1.34 1.24 1.21 1.28 1.53 1.87 2.04 1.95 1.77 1.63 1.61 1.56 1.58 1.75 1.79 1.70 1.50 1.34
1.63 1.62 1.58 1.39 1.22 1.13 1.03 0.93 0.87 0.90 1.00 1.02 1.05 1.09 1.11 1.17 1.22 1.23 1.22 1.27 1.31 1.27 1.24 1.27 1.43 1.63 1.83 1.72 1.52 1.42 1.48 1.54 1.64 1.75 1.80 1.69 1.49 1.37
1.24 1.27 1.21 1.14 1.06 0.91 0.85 0.84 0.81 0.85 0.95 0.99 1.01 1.02 1.06 1.12 1.15 1.21 1.22 1.24 1.29 1.29 1.24 1.20 1.24 1.36 1.52 1.49 1.38 1.27 1.30 1.42 1.51 1.54 1.53 1.54 1.50 1.58
0.85 0.83 0.79 0.79 0.79 0.74 0.71 0.71 0.74 0.78 0.84 0.93 0.97 0.96 0.97 1.03 1.10 1.17 1.25 1.35 1.34 1.30 1.30 1.20 1.17 1.35 1.44 1.56 1.52 1.22 1.16 1.37 1.47 1.47 1.52 1.65 1.64 1.52
0.60 0.61 0.62 0.63 0.66 0.65 0.66 0.68 0.70 0.74 0.80 0.87 0.91 0.97 0.99 0.98 1.01 1.10 1.19 1.27 1.28 1.26 1.25 1.24 1.28 1.38 1.48 1.61 1.54 1.33 1.24 1.26 1.47 1.69 1.64 1.64 1.59 1.46
0.60 0.60 0.59 0.62 0.66 0.67 0.69 0.74 0.78 0.81 0.82 0.90 0.94 0.97 1.04 1.07 1.07 1.10 1.14 1.17 1.22 1.24 1.24 1.27 1.30 1.38 1.44 1.50 1.55 1.50 1.45 1.38 1.40 1.55 1.59 1.68 1.52 1.25

GEFSNE_prec_meanprecacc_330.txt.gz
Total_Precipitation_Accumulation
2.26 2.41 2.58 2.71 2.67 2.51 2.50 2.51 2.51 2.31 2.09 1.91 1.71 1.49 1.53 1.64 1.87 1.69 1.61 1.61 1.35 1.20 1.16 1.29 1.49 1.65 1.88 2.13 2.49 2.88 3.19 3.28 3.28 3.00 2.70 2.59 2.58 2.53
2.06 2.20 2.26 2.33 2.55 2.56 2.43 2.45 2.39 2.26 2.12 1.89 1.77 1.58 1.68 1.61 1.79 1.59 1.60 1.71 1.41 1.28 1.18 1.20 1.30 1.28 1.26 1.38 1.50 1.73 2.18 2.27 2.38 2.46 2.41 2.25 2.25 2.27
1.68 1.81 1.97 2.23 2.55 2.62 2.59 2.49 2.41 2.30 2.07 1.84 1.63 1.53 1.82 1.91 1.81 1.68 1.65 1.62 1.42 1.35 1.23 1.14 1.18 1.18 1.13 1.06 1.08 1.23 1.50 1.69 1.75 1.81 1.94 1.99 2.11 2.20
1.48 1.61 1.80 2.09 2.44 2.66 2.77 2.66 2.52 2.41 2.26 2.09 1.74 1.49 1.60 1.92 2.03 1.95 1.75 1.60 1.46 1.44 1.29 1.16 1.13 1.14 1.10 1.03 0.99 1.02 1.10 1.25 1.43 1.46 1.46 1.60 1.88 2.14
1.46 1.52 1.58 1.80 2.01 2.20 2.39 2.52 2.50 2.51 2.47 2.22 1.91 1.63 1.56 1.71 1.96 1.95 1.88 1.88 1.62 1.57 1.55 1.39 1.26 1.21 1.16 1.03 1.00 0.99 1.02 1.07 1.08 1.13 1.16 1.23 1.39 1.66
1.27 1.34 1.41 1.47 1.66 1.82 1.93 2.14 2.36 2.62 2.67 2.51 2.24 1.90 1.77 1.66 1.75 1.91 1.97 1.92 1.83 1.66 1.62 1.48 1.45 1.39 1.36 1.21 1.06 0.98 1.00 1.06 1.05 1.02 1.05 1.09 1.12 1.23
1.18 1.16 1.21 1.26 1.35 1.55 1.60 1.82 2.14 2.43 2.52 2.60 2.48 2.16 1.88 1.73 1.49 1.59 1.85 2.07 2.06 2.00 1.99 1.72 1.56 1.39 1.36 1.38 1.35 1.21 1.04 0.99 0.98 1.00 1.07 1.12 1.19 1.22
1.15 1.13 1.16 1.12 1.09 1.19 1.33 1.46 1.75 1.99 2.13 2.22 2.24 2.08 1.87 1.74 1.69 1.64 1.71 1.85 1.89 1.78 1.85 1.94 1.84 1.68 1.56 1.44 1.48 1.54 1.42 1.28 1.17 1.14 1.17 1.18 1.23 1.28
1.19 1.23 1.18 1.11 1.14 1.13 1.18 1.20 1.26 1.48 1.71 1.93 1.97 1.86 1.93 1.85 1.80 1.69 1.68 1.67 1.63 1.72 1.80 1.90 1.89 1.80 1.72 1.72 1.72 1.57 1.50 1.40 1.33 1.30 1.30 1.28 1.21 1.21
1.14 1.10 1.18 1.20 1.24 1.28 1.19 1.24 1.17 1.18 1.30 1.33 1.48 1.74 1.94 2.12 2.11 2.01 2.00 1.90 1.77 1.84 1.86 1.84 1.72 1.65 1.57 1.58 1.68 1.51 1.39 1.32 1.30 1.30 1.32 1.30 1.20 1.17
1.09 1.13 1.23 1.28 1.47 1.51 1.36 1.39 1.34 1.30 1.30 1.41 1.51 1.65 1.78 1.90 2.07 2.14 2.11 2.07 1.90 1.77 1.73 1.70 1.59 1.60 1.58 1.48 1.45 1.47 1.36 1.28 1.24 1.23 1.24 1.23 1.22 1.27
1.22 1.25 1.52 1.50 1.53 1.47 1.34 1.47 1.43 1.28 1.20 1.24 1.30 1.39 1.45 1.58 1.72 1.77 1.97 2.13 2.02 1.80 1.54 1.52 1.51 1.56 1.64 1.51 1.40 1.31 1.29 1.34 1.29 1.24 1.23 1.25 1.31 1.28
1.33 1.32 1.31 1.51 1.46 1.40 1.38 1.35 1.46 1.36 1.26 1.28 1.27 1.26 1.29 1.35 1.41 1.48 1.64 1.85 1.98 1.83 1.57 1.59 1.57 1.55 1.46 1.32 1.33 1.30 1.26 1.25 1.26 1.29 1.33 1.37 1.37 1.30
1.38 1.26 1.16 1.44 1.41 1.33 1.23 1.25 1.42 1.46 1.41 1.45 1.44 1.34 1.25 1.21 1.21 1.28 1.39 1.53 1.68 1.71 1.68 1.70 1.69 1.62 1.57 1.40 1.27 1.26 1.29 1.32 1.32 1.28 1.25 1.44 1.49 1.53
1.30 1.32 1.29 1.32 1.25 1.18 1.28 1.31 1.34 1.33 1.40 1.46 1.36 1.22 1.15 1.15 1.22 1.34 1.46 1.56 1.64 1.62 1.57 1.60 1.68 1.76 1.77 1.62 1.44 1.32 1.33 1.33 1.33 1.29 1.24 1.24 1.29 1.43
1.17 1.22 1.19 1.13 1.13 1.12 1.17 1.27 1.30 1.36 1.40 1.33 1.22 1.09 1.11 1.19 1.23 1.27 1.43 1.59 1.73 1.69 1.63 1.69 1.77 1.86 1.93 1.73 1.62 1.49 1.42 1.40 1.37 1.41 1.41 1.32 1.25 1.26
1.39 1.24 1.14 1.09 1.06 1.04 1.07 1.12 1.18 1.20 1.23 1.21 1.17 1.15 1.14 1.18 1.20 1.20 1.31 1.40 1.42 1.38 1.42 1.53 1.77 1.94 1.94 1.91 1.86 1.68 1.62 1.58 1.57 1.62 1.62 1.55 1.36 1.25
1.77 1.65 1.56 1.40 1.27 1.15 1.10 1.06 1.03 1.04 1.09 1.13 1.15 1.14 1.17 1.23 1.28 1.28 1.31 1.36 1.35 1.25 1.23 1.30 1.56 1.92 2.11 2.01 1.81 1.67 1.65 1.58 1.59 1.76 1.80 1.71 1.50 1.34
1.67 1.66 1.64 1.45 1.28 1.19 1.08 0.98 0.92 0.94 1.03 1.05 1.07 1.11 1.13 1.19 1.24 1.25 1.24 1.29 1.32 1.29 1.25 1.29 1.45 1.66 1.87 1.77 1.56 1.44 1.50 1.56 1.65 1.76 1.80 1.70 1.49 1.38
1.26 1.31 1.27 1.21 1.13 0.97 0.90 0.89 0.86 0.90 0.99 1.02 1.03 1.04 1.08 1.14 1.17 1.23 1.25 1.26 1.31 1.31 1.27 1.23 1.27 1.39 1.54 1.50 1.40 1.29 1.32 1.45 1.54 1.56 1.54 1.55 1.51 1.60
0.87 0.87 0.85 0.85 0.84 0.79 0.75 0.75 0.78 0.83 0.89 0.96 1.00 0.99 1.00 1.05 1.12 1.19 1.28 1.38 1.37 1.33 1.33 1.23 1.19 1.38 1.46 1.58 1.54 1.24 1.18 1.39 1.50 1.49 1.53 1.67 1.66 1.53
0.63 0.64 0.65 0.67 0.70 0.70 0.71 0.73 0.75 0.78 0.84 0.91 0.95 1.01 1.03 1.02 1.05 1.13 1.22 1.30 1.31 1.29 1.28 1.27 1.30 1.41 1.51 1.64 1.56 1.35 1.25 1.28 1.50 1.72 1.67 1.67 1.62 1.48
0.62 0.62 0.62 0.64 0.69 0.72 0.75 0.79 0.82 0.85 0.87 0.94 0.96 1.00 1.07 1.11 1.11 1.14 1.18 1.20 1.25 1.26 1.26 1.30 1.33 1.41 1.48 1.54 1.58 1.53 1.47 1.40 1.43 1.58 1.63 1.72 1.56 1.27